Location: Champaign/Urbana Astronomical Society Observatory
(40.0333°N, 88.2833°W)
Time: 05:49:30
(UTC-05:00)

AIST 2D - Pass Details

Date: 27 May 2019
Orbit: 456 x 473 km, 97.2° (Epoch: 16 June)

Event Time Altitude Azimuth Distance (km) Brightness Sun altitude
Rises 23:59:28 0° 7° (N) 2,501 ? -27.6°
Reaches altitude 10° 00:01:33 10° 3° (N) 1,618 ? -27.7°
Enters shadow 00:03:18 27° 353° (N) 920 ? -27.7°
